Regional Weather Roundup
Issued by NWS

Home | Current Version | Previous Version | Text Only | Print | Product List | Glossary Off
Versions: 1 2 3 4 5 6 7 8 9 10 11 12 13 14 15 16 17 18 19 20 21 22 23 24 25 26 27 28

000
ASUS45 KTFX 050510
RWRMT
MONTANA REGIONAL WEATHER ROUNDUP
NATIONAL WEATHER SERVICE GREAT FALLS MT
1100 PM MDT WED MAY 04 2016

NOTE: "FAIR" INDICATES FEW OR NO CLOUDS BELOW 12000 FEET WITH NO
SIGNIFICANT WEATHER AND/OR OBSTRUCTIONS TO VISIBILITY.

MTZ001>007-043-050600-
WEST OF THE DIVIDE

CITY           SKY/WX    TMP DP  RH WIND       PRES   REMARKS
KALISPELL      CLOUDY    58  48  69 W3        29.85F
MISSOULA       MOCLDY    56  39  53 N3        29.88R
BUTTE          CLOUDY    54  35  48 CALM      30.00F
MULLAN PASS    CLOUDY    56  32  40 SE5       29.98F
ANACONDA         N/A     55  34  44 SW6       29.97S
DEER LODGE       N/A     54  36  50 CALM      29.96S
EUREKA           N/A     64  43  45 SE6       29.86F
HAMILTON         N/A     59  41  51 CALM      29.88S
LIBBY            N/A     57  48  72 S3        29.86F
PLAINS           N/A     61  47  59 CALM      29.86S
THOMPSON FALLS   N/A     60  49  67 CALM      29.90S
$$

MTZ008-052>055-050600-
SOUTHWEST MONTANA

CITY           SKY/WX    TMP DP  RH WIND       PRES   REMARKS
BOZEMAN        CLOUDY    51  37  58 SE10      29.97S
DILLON         CLOUDY    63  29  27 S10       29.97F
ENNIS          CLEAR     50  32  50 SW5       30.07S
THREE FORKS      N/A     61  -8   6 S5        29.95S
TWIN BRIDGES     N/A     61  28  28 S1        29.98R
$$

MTZ009-010-012-014-046-048-049-054-050600-
EAST SLOPES AND CENTRAL MONTANA

CITY           SKY/WX    TMP DP  RH WIND       PRES   REMARKS
CUT BANK       MOCLDY    53  37  54 NW10      29.89S
GREAT FALLS    CLOUDY    55  37  50 W8        29.89R
MALMSTROM AFB  PTCLDY    54  42  63 S7        29.89R
HELENA         CLOUDY    63  34  33 W7        29.91S
CHOTEAU          N/A     61  36  39 W5        29.91S
CONRAD           N/A     52  45  77 CALM      29.93S
$$

MTZ011-013-016-021-045-047-050-051-050600-
NORTH CENTRAL MONTANA

CITY           SKY/WX    TMP DP  RH WIND       PRES   REMARKS
HAVRE          CLOUDY    58  44  60 S5        29.82S
LEWISTOWN      CLOUDY    56  36  47 E6        29.92S
N BAR RANCH      N/A     63  32  31 W10       29.96F
$$

MTZ017>020-022>027-061-062-050600-
NORTHEAST MONTANA

CITY           SKY/WX    TMP DP  RH WIND       PRES   REMARKS
GLASGOW        CLOUDY    61  40  45 E10       29.83S
JORDAN           N/A     65  44  46 CALM      29.86S
SIDNEY         CLEAR     61  43  51 SW3       29.87S
WOLF POINT     CLEAR     54  45  71 CALM      29.84R
POPLAR           N/A     61  43  51 CALM      29.84S
SCOBEY           N/A     59  37  43 CALM      29.86S
$$

MTZ028>42-056>058-050600-
SOUTHCENTRAL AND SOUTHEAST MONTANA

CITY           SKY/WX    TMP DP  RH WIND       PRES   REMARKS
BAKER          CLEAR     60  42  51 S16       29.95S
BILLINGS       CLOUDY    70  39  32 S7        29.92S
LIVINGSTON     PTCLDY    56  33  42 CALM      29.97S
MILES CITY     CLEAR     64  43  46 S8        29.89S
EKALAKA          N/A     56  40  55 SE7       29.96F
FORSYTH          N/A     63  39  42 SE5       29.87F
LAUREL           N/A     58  39  49 W3        29.91S
ROUNDUP          N/A     66  32  28 CALM      29.83S
$$

REGIONAL REPORTS...DAKOTAS

CITY           SKY/WX    TMP DP  RH WIND       PRES   REMARKS
WILLISTON      CLEAR     52  43  71 CALM      29.86S
MINOT          CLEAR     72  42  34 S15       29.86F
DICKINSON      CLEAR     55  42  61 S10       29.93S
BEACH            N/A     57  41  54 S10       29.96S
CROSBY           N/A     59  39  47 S10       29.85F
TIOGA            N/A     59  37  44 S10       29.92S
WATFORD CITY     N/A     64  39  39 S10       29.88S
BISMARCK       CLEAR     56  46  69 CALM      29.95S
GRAND FORKS    CLEAR     55  30  38 S8        29.90F
FARGO          PTCLDY    57  28  33 S7        29.94F
BUFFALO SD       N/A     57  44  62 SE13      29.92F
RAPID CITY     CLEAR     53  43  68 SE5       30.02F
$$

REGIONAL REPORTS...WYOMING/IDAHO/WASHINGTON

CITY           SKY/WX    TMP DP  RH WIND       PRES   REMARKS
GILLETTE       CLEAR     57  42  57 S16       30.00F
SHERIDAN       CLEAR     51  37  58 S7        29.97S
BUFFALO WY     CLEAR     61  30  31 W12       30.03F
CODY           CLOUDY    61  30  31 SW9       30.01F
YELLOWSTONE LA   N/A     37  29  72 CALM      30.22R
IDAHO FALLS    CLOUDY    53  36  52 CALM      30.01S
SALMON         CLOUDY    59  34  38 CALM      29.89S
BOISE          PTCLDY    68  37  32 S17G24    29.82R
SPOKANE        MOCLDY    64  46  52 W8        29.83S
$$

REGIONAL REPORTS...ALBERTA

CITY           SKY/WX    TMP DP  RH WIND       PRES   REMARKS
EDMONTON       CLEAR     61  32  33 NW13G23   29.80R
CALGARY        MOCLDY    68  34  28 W8G17     29.80S
LETHBRIDGE     CLEAR     61  37  41 SW15      29.83R
MEDICINE HAT   CLEAR     61  41  48 S7        29.77S
WATERTON GATE    N/A     55  37  50 S6          N/A
CARDSTON         N/A     59  37  44 S6          N/A
MILK RIVER       N/A     52  41  66 W9          N/A
ONEFOUR          N/A     57  41  54 NW8         N/A
$$

REGIONAL REPORTS...SASKATCHEWAN

CITY           SKY/WX    TMP DP  RH WIND       PRES   REMARKS
SWIFT CURRENT  CLEAR     63  34  34 S13       29.79F
REGINA         CLEAR     57  34  41 SW12      29.78R
SASKATOON      PTCLDY    63  36  36 SW3       29.71S
CYPRESS HILLS    N/A     59  36  41 SW1         N/A
VAL MARIE        N/A     52  37  58 NW3         N/A
ROCKGLEN         N/A     61  36  39 SW6         N/A
ASSINIBOIA       N/A     66  41  39 N14G20      N/A
$$




USA.gov is the U.S. government's official web portal to all federal, state and local government web resources and services.